Location: Blangy-Tronville
(49.8790°N, 2.4226°E)
Time: 07:37:26
(UTC+00:00)

Cosmos 44 Rocket - Pass Details

Date: 18 November 2025
Orbit: 637 x 741 km, 65.1° (Epoch: 06 December)

Event Time Altitude Azimuth Distance (km) Brightness Sun altitude
Rises 18:17:14 0° 230° (SW) 2,999 7.5 -21.3°
Reaches altitude 10° 18:19:32 10° 234° (SW) 2,105 6.6 -21.7°
Maximum altitude 18:24:16 60° 315° (NW) 794 3.7 -22.5°
Enters shadow 18:26:12 35° 19° (NNE) 1,130 4.1 -22.8°
